Corpus Christi, TX

10:48 PM CST on December 02, 2016 (GMT -0600)
North Padre Island

Weather History for KOPM - February, 2013

Change the Weather History Date:

Friday, February 15, 2013

  Actual Average (KHRL) Record (KHRL)
Temperature  
Mean Temperature 65 °F 63 °F  
Max Temperature 66 °F 74 °F 90 °F (1937)
Min Temperature 64 °F 53 °F 35 °F (1917)
Degree Days  
Heating Degree Days 0 4  
Month to date heating degree days 73  
Since 1 July heating degree days 521  
Cooling Degree Days 0 3  
Month to date cooling degree days 36  
Year to date cooling degree days 85  
Growing Degree Days 15 (Base 50)    
Moisture  
Dew Point 50 °F    
Average Humidity 58    
Maximum Humidity 64    
Minimum Humidity 52    
Precipitation  
Precipitation 0.00 in 0.07 in 5.16 in (1923)
Month to date precipitation 0.90  
Year to date precipitation 1.96  
Sea Level Pressure  
Sea Level Pressure 30.12 in    
Wind  
Wind Speed 11 mph (ENE)    
Max Wind Speed 17 mph    
Max Gust Speed 22 mph    
Visibility 10 miles    
Events      
T = Trace of Precipitation, MM = Missing Value Source: NWS Daily Summary

Daily Weather History Graph

Daily Weather History Graph

Search for Another Location

Airport or City:

Trip Planner

Search our weather history database for the weather conditions in past years. The results will help you decide how hot, cold, wet, or windy it might be!

Date:

Astronomy

Feb. 15, 2013 Rise Set
Actual Time 7:03 AM CST 6:20 PM CST
Civil Twilight 6:40 AM CST 6:43 PM CST
Nautical Twilight 6:12 AM CST 7:11 PM CST
Astronomical Twilight 5:45 AM CST 7:38 PM CST
Moon 10:17 AM CST (2/15) 11:43 PM CST (2/15)
Length of Visible Light 12h 03m
Length of Day
11h 16m
Waxing Crescent, 30% of the Moon is Illuminated
Feb 15
Waxing Crescent
Feb 17
First Quarter
Feb 25
Full
Mar 4
Last Quarter
Mar 11
New

Hourly Weather History & Observations

Time (CST) Temp. Dew Point Humidity Pressure Visibility Wind Dir Wind Speed Gust Speed Precip Events Conditions
12:15 AM 64.4 °F 48.2 °F 56% 30.06 in 10.0 mi East 13.8 mph - N/A   Clear
12:35 AM 64.4 °F 48.2 °F 56% 30.06 in 10.0 mi East 13.8 mph - N/A   Clear
12:55 AM 64.4 °F 50.0 °F 59% 30.05 in 10.0 mi East 15.0 mph - N/A   Clear
1:15 AM 64.4 °F 48.2 °F 56% 30.05 in 10.0 mi East 15.0 mph - N/A   Clear
1:35 AM 64.4 °F 50.0 °F 59% 30.05 in 10.0 mi East 15.0 mph - N/A   Clear
1:55 AM 64.4 °F 48.2 °F 56% 30.05 in 10.0 mi East 13.8 mph - N/A   Clear
2:15 AM 64.4 °F 50.0 °F 59% 30.06 in 10.0 mi ENE 13.8 mph - N/A   Clear
2:35 AM 64.4 °F 50.0 °F 59% 30.05 in 10.0 mi ENE 13.8 mph - N/A   Clear
2:55 AM 64.4 °F 50.0 °F 59% 30.04 in 10.0 mi ENE 17.3 mph - N/A   Clear
3:15 AM 64.4 °F 50.0 °F 59% 30.04 in 10.0 mi ENE 16.1 mph - N/A   Clear
3:35 AM 64.4 °F 50.0 °F 59% 30.04 in 10.0 mi ENE 16.1 mph - N/A   Clear
3:55 AM 64.4 °F 51.8 °F 64% 30.05 in 10.0 mi ENE 13.8 mph - N/A   Clear
4:15 AM 64.4 °F 50.0 °F 59% 30.06 in 10.0 mi ENE 11.5 mph - N/A   Clear
4:35 AM 64.4 °F 50.0 °F 59% 30.06 in 10.0 mi ENE 11.5 mph - N/A   Clear
4:55 AM 64.4 °F 51.8 °F 64% 30.06 in 10.0 mi ENE 10.4 mph - N/A   Clear
5:15 AM 64.4 °F 50.0 °F 59% 30.06 in 10.0 mi East 9.2 mph - N/A   Clear
5:35 AM 64.4 °F 51.8 °F 64% 30.07 in 10.0 mi East 8.1 mph - N/A   Clear
5:55 AM 64.4 °F 50.0 °F 59% 30.08 in 10.0 mi East 8.1 mph - N/A   Clear
6:15 AM 66.2 °F 50.0 °F 56% 30.09 in 10.0 mi East 8.1 mph - N/A   Clear
6:35 AM 66.2 °F 50.0 °F 56% 30.09 in 10.0 mi East 6.9 mph - N/A   Clear
6:55 AM 66.2 °F 51.8 °F 60% 30.10 in 10.0 mi East 8.1 mph - N/A   Clear
7:15 AM 66.2 °F 51.8 °F 60% 30.10 in 10.0 mi East 5.8 mph - N/A   Clear
7:35 AM 66.2 °F 51.8 °F 60% 30.12 in 10.0 mi East 6.9 mph - N/A   Clear
7:55 AM 66.2 °F 50.0 °F 56% 30.12 in 10.0 mi ENE 6.9 mph - N/A   Clear
8:15 AM 66.2 °F 50.0 °F 56% 30.13 in 10.0 mi East 6.9 mph - N/A   Clear
8:35 AM 66.2 °F 51.8 °F 60% 30.13 in 10.0 mi East 6.9 mph - N/A   Clear
8:55 AM 66.2 °F 50.0 °F 56% 30.14 in 10.0 mi ESE 4.6 mph - N/A   Clear
9:15 AM 66.2 °F 51.8 °F 60% 30.15 in 10.0 mi ESE 4.6 mph - N/A   Clear
9:35 AM 66.2 °F 51.8 °F 60% 30.15 in 10.0 mi East 4.6 mph - N/A   Clear
9:55 AM 66.2 °F 50.0 °F 56% 30.15 in 10.0 mi ENE 4.6 mph - N/A   Clear
10:15 AM 66.2 °F 50.0 °F 56% 30.16 in 10.0 mi ENE 5.8 mph - N/A   Clear
10:35 AM 66.2 °F 51.8 °F 60% 30.16 in 10.0 mi NE 5.8 mph - N/A   Clear
10:55 AM 66.2 °F 50.0 °F 56% 30.16 in 10.0 mi NE 6.9 mph - N/A   Clear
11:15 AM 66.2 °F 50.0 °F 56% 30.16 in 10.0 mi NE 9.2 mph - N/A   Clear
11:35 AM 66.2 °F 51.8 °F 60% 30.16 in 10.0 mi NE 9.2 mph - N/A   Clear
11:55 AM 66.2 °F 51.8 °F 60% 30.15 in 10.0 mi NE 10.4 mph - N/A   Clear
12:15 PM 66.2 °F 50.0 °F 56% 30.14 in 10.0 mi NE 11.5 mph - N/A   Clear
12:35 PM 66.2 °F 50.0 °F 56% 30.14 in 10.0 mi NE 12.7 mph - N/A   Clear
12:55 PM 66.2 °F 50.0 °F 56% 30.13 in 10.0 mi NE 13.8 mph - N/A   Clear
1:15 PM 66.2 °F 51.8 °F 60% 30.12 in 10.0 mi NE 12.7 mph - N/A   Clear
1:35 PM 66.2 °F 50.0 °F 56% 30.12 in 10.0 mi NE 11.5 mph - N/A   Clear
1:55 PM 66.2 °F 50.0 °F 56% 30.12 in 10.0 mi NE 13.8 mph - N/A   Clear
2:15 PM 66.2 °F 50.0 °F 56% 30.12 in 10.0 mi NNE 11.5 mph - N/A   Clear
2:35 PM 66.2 °F 50.0 °F 56% 30.12 in 10.0 mi NNE 10.4 mph 16.1 mph N/A   Clear
2:55 PM 66.2 °F 50.0 °F 56% 30.11 in 10.0 mi NNE 9.2 mph 16.1 mph N/A   Clear
3:15 PM 66.2 °F 50.0 °F 56% 30.11 in 10.0 mi NNE 11.5 mph - N/A   Clear
3:35 PM 66.2 °F 48.2 °F 52% 30.12 in 10.0 mi NNE 11.5 mph 17.3 mph N/A   Clear
3:55 PM 66.2 °F 50.0 °F 56% 30.11 in 10.0 mi NNE 9.2 mph 16.1 mph N/A   Clear
4:15 PM 66.2 °F 50.0 °F 56% 30.11 in 10.0 mi NNE 15.0 mph - N/A   Partly Cloudy
4:35 PM 66.2 °F 50.0 °F 56% 30.11 in 10.0 mi NNE 13.8 mph 19.6 mph N/A   Partly Cloudy
4:55 PM 66.2 °F 50.0 °F 56% 30.12 in 10.0 mi NNE 8.1 mph 16.1 mph N/A   Clear
5:15 PM 66.2 °F 50.0 °F 56% 30.12 in 10.0 mi NNE 8.1 mph 18.4 mph N/A   Clear
5:35 PM 64.4 °F 50.0 °F 59% 30.11 in 10.0 mi NNE 10.4 mph 21.9 mph N/A   Clear
5:55 PM 64.4 °F 50.0 °F 59% 30.12 in 10.0 mi NNE 12.7 mph 21.9 mph N/A   Clear
9:15 PM 64.4 °F 50.0 °F 59% 30.20 in 10.0 mi NNE 15.0 mph - N/A   Clear
9:35 PM 64.4 °F 48.2 °F 56% 30.21 in 10.0 mi NNE 11.5 mph 17.3 mph N/A   Clear
9:55 PM 64.4 °F 50.0 °F 59% 30.21 in 10.0 mi NNE 9.2 mph 19.6 mph N/A   Clear
10:15 PM 64.4 °F 48.2 °F 56% 30.22 in 10.0 mi NNE 13.8 mph - N/A   Clear
10:35 PM 64.4 °F 48.2 °F 56% 30.23 in 10.0 mi NNE 5.8 mph 17.3 mph N/A   Clear
10:55 PM 64.4 °F 48.2 °F 56% 30.23 in 10.0 mi NNE 13.8 mph 19.6 mph N/A   Clear
11:15 PM 64.4 °F 48.2 °F 56% 30.23 in 10.0 mi NNE 6.9 mph 18.4 mph N/A   Partly Cloudy
11:35 PM 64.4 °F 46.4 °F 52% 30.24 in 10.0 mi North 6.9 mph - N/A   Scattered Clouds
11:55 PM 64.4 °F 48.2 °F 56% 30.24 in 10.0 mi North 8.1 mph - N/A   Overcast